RJFORJFR

Guest
Details From RJFO - OITA
To RJFR - NEW KITAKYUSHU
Flight Number -
Tags generated
Created
Modified
Stats Distance 44 nm / 81 km
Max Altitude 400 ft / 122 m
Waypoints 3
Social Downloads 0
Likes 0
Share VATSIM

Download

Looking for another format? Having issues loading an existing format? Contact us
Advertisement - Login to hide

Notes

Basic altitude profile: - Ascent Rate: 2500ft/min - Ascent Speed: 250kts - Cruise Altitude: 35000ft - Cruise Speed: 420kts - Descent Rate: 1500ft/min - Descent Speed: 250kts Options: - Use NATs: yes - Use PACOTS: yes - Use low airways: yes - Use high airways: yes

Route

RJFO KANDA RJFR

ID Type Via Altitude Latitude Longitude Leg Dist Tot Dist Heading (true) Name
O RJFO APT - 0 ft / 0 m 33.47950˚ 131.73712˚ - 0 nm - OITA
KANDA FIX - 400 ft / 122 m 33.81856˚ 131.00817˚ 41 nm 41 nm 299° / 299° -
O RJFR APT - 0 ft / 0 m 33.84594˚ 131.03469˚ 2 nm 43 nm 39° / 39° NEW KITAKYUSHU

Altitude Profile

Advertisement - Login to hide

RJFO

Details ICAO RJFO (OIT)
Name OITA
Region Japan
Timezone Asia/Tokyo (UTC+9.0)
Stats Elevation 19 ft / 6 m (AMSL)
Location 33.479503° 131.737125°
Runways 1
Magnetic Variation 7.455° W

METAR

RJFO 241300Z 22003KT 190V270 CAVOK 18/11 Q1009

Decode

TAF

TAF RJFO 241107Z 2412/2518 24004KT 9999 FEW030

Decode

Departure Runways

ID Width Length Bearing (true) Bearing (mag) Surface Threshold Offset Overrun Length
01 150 ft / 46 m 9,869 ft / 3,008 m 0.42° 7.87° Asphalt 0 ft / 0 m 200 ft / 61 m
19 150 ft / 46 m 9,869 ft / 3,008 m 180.42° 187.87° Asphalt 0 ft / 0 m 200 ft / 61 m

RJFR

Details ICAO RJFR (KKJ)
Name NEW KITAKYUSHU
Region Japan
Timezone Asia/Tokyo (UTC+9.0)
Stats Elevation 21 ft / 6 m (AMSL)
Location 33.845940° 131.034689°
Runways 1
Magnetic Variation 7.567° W

METAR

RJFR 241400Z 23006KT CAVOK 20/11 Q1009

Decode

TAF

TAF RJFR 241109Z 2412/2518 24004KT 9999 FEW050 BECMG 2418/2420 03005KT BECMG 2500/2503 11005KT BECMG 2509/2512 33005KT

Decode

Destination Runways

ID Width Length Bearing (true) Bearing (mag) Surface Threshold Offset Overrun Length
18 260 ft / 79 m 8,625 ft / 2,629 m 170.36° 177.93° Asphalt 0 ft / 0 m 0 ft / 0 m
36 260 ft / 79 m 8,625 ft / 2,629 m 350.36° 357.93° Asphalt 0 ft / 0 m 0 ft / 0 m

Approach Navaids

Runway Type Ident Frequency Range Bearing (true) Bearing (mag) Slope Elevation
18 Localiser IKQ 109.15 MHz 18 nm / 33 km 169.76° 177.33° - 54 ft / 16 m (AMSL)
18 Glidescope IKQ 109.15 MHz 10 nm / 19 km 170.36° 177.93° 3.00° 46 ft / 14 m (AMSL)